[[{"header":{"parameterUnit":"m.s-1","parameterCategory":1,"la1":30.2991,"la2":30.254,"lo1":-89.0895,"lo2":-89.0444,"dy":0.0017,"dx":0.0017,"nx":28,"ny":28,"refTime":"2023-09-26T03:00:00:Z","depth":0,"parameterNumber":2,"parameterNumberName":"U-component_of_WINDS"},"data":[0,0,0,0,0,0,0,0,0,0,0,0,0,0,0,0,0,0,0,0,0,0,0,0,0,0,0,0,0,0,0,0,0,0,0,0,0,0,0,0,0,0,0,0,0,0,0,0,0,0,0,0,0,0,0,0,0,0,-4.1276,-4.1277,0,-4.1372,-4.1373,-4.1374,-4.132,-4.1317,-4.1314,-4.1312,-4.1407,-4.1412,-4.1417,0,0,0,0,0,0,0,0,0,0,0,0,0,-4.1046,-4.1051,-4.1276,-4.1278,-4.1279,-4.1371,-4.1373,-4.1374,-4.132,-4.1317,-4.1314,-4.1311,-4.1405,-4.1411,-4.1417,0,0,0,0,0,0,0,0,0,0,0,0,0,-4.1144,-4.1052,-4.1276,-4.1263,-4.1263,-4.1371,-4.1373,-4.1374,-4.1321,-4.1317,-4.1313,-4.1309,-4.1403,-4.1411,-4.1418,-4.1543,0,0,-4.1441,-4.1444,0,0,0,0,0,0,0,0,-4.1139,-4.1153,-4.1264,-4.1264,-4.1264,-4.133,-4.1326,-4.1431,-4.1322,-4.1299,-4.1312,-4.1307,-4.1384,-4.1393,-4.1419,-4.1548,-4.1552,-4.1441,-4.1446,-4.1449,-4.1451,0,0,0,0,0,0,0,-4.1132,-4.1148,-4.1314,-4.1266,-4.1266,-4.1252,-4.1261,-4.1346,-4.1362,-4.1301,-4.1297,-4.1309,-4.1384,-4.1412,-4.1421,-4.1553,-4.1441,-4.1448,-4.1452,-4.1455,-4.1789,-4.1793,0,0,0,0,0,0,-4.1126,-4.1143,-4.1311,-4.1317,-4.1191,-4.1259,-4.127,-4.1313,-4.1361,-4.1365,-4.1312,-4.1306,-4.1402,-4.1413,-4.1424,-4.1573,-4.1449,-4.1456,-4.146,-4.1784,-4.179,-4.1794,0,0,0,0,0,0,-4.1122,-4.1142,-4.1307,-4.1229,-4.1249,-4.1268,-4.1316,-4.1317,-4.1345,-4.137,-4.1373,-4.1339,-4.1399,-4.1414,-4.1514,-4.1576,-4.146,-4.1466,-4.1779,-4.1786,-4.1792,-4.1873,0,0,0,0,0,0,-4.1115,-4.114,-4.1189,-4.1231,-4.1253,-4.1396,-4.132,-4.1321,-4.1359,-4.1352,-4.1396,-4.1399,-4.1397,-4.1503,-4.1522,-4.1584,-4.1472,-4.1774,-4.1782,-4.179,-4.1864,-4.1881,-4.1895,0,0,0,0,0,-4.1107,-4.1207,-4.1191,-4.1212,-4.1314,-4.14,-4.1412,-4.1408,-4.1364,-4.1412,-4.1428,-4.1398,-4.1567,-4.1514,-4.1534,-4.16,-4.177,-4.178,-4.1789,-4.1857,-4.1878,-4.1895,0,0,0,0,0,0,-4.1171,-4.1212,-4.1195,-4.1312,-4.1353,-4.139,-4.145,-4.143,-4.1484,-4.1474,-4.1467,-4.1477,-4.1581,-4.1601,-4.1541,-4.1724,-4.1661,-4.1676,-4.1706,-4.1726,-4.1741,-4.1732,-4.1478,0,0,0,0,0,-4.1199,-4.1265,-4.1298,-4.1398,-4.1419,-4.1432,-4.1469,-4.1462,-4.1504,-4.1521,-4.1544,-4.1585,-4.1647,-4.1688,-4.1747,-4.1868,-4.1876,-4.1923,-4.1939,-4.1951,-4.1963,-4.2027,-4.2048,-4.1827,-4.1827,-4.1826,0,0,-4.1256,-4.1287,-4.1329,-4.1411,-4.1442,-4.151,-4.1446,-4.1521,-4.1572,-4.1532,-4.1627,-4.1647,-4.1692,-4.1803,-4.1853,-4.1822,-4.2026,-4.1964,-4.1974,-4.1978,-4.204,-4.2061,-4.2079,-4.1833,-4.1832,-4.1831,0,0,-4.1395,-4.1427,-4.1512,-4.1545,-4.1593,-4.1601,-4.1622,-4.1663,-4.1674,-4.1771,-4.1742,-4.1802,-4.191,-4.1943,-4.1974,-4.2128,-4.2101,-4.2147,-4.2226,-4.229,-4.2307,-4.2322,-4.2375,-4.2394,-4.2159,-4.216,-4.216,0,-4.146,-4.1562,-4.1559,-4.1636,-4.1672,-4.1641,-4.1727,-4.1759,-4.1824,-4.1849,-4.1815,-4.1949,-4.1978,-4.2095,-4.2133,-4.216,-4.2182,-4.214,-4.2305,-4.232,-4.2335,-4.2385,-4.2405,-4.2165,-4.2164,-4.2164,-4.2163,0,-4.1639,-4.171,-4.1774,-4.1838,-4.1882,-4.1963,-4.1971,-4.2016,-4.2007,-4.2018,-4.2117,-4.215,-4.2215,-4.2243,-4.2234,-4.236,-4.2339,-4.2306,-4.2242,-4.2361,-4.2408,-4.2427,-4.2172,-4.217,-4.2169,-4.2167,0,0,-4.1817,-4.188,-4.1902,-4.1931,-4.1983,-4.2037,-4.2118,-4.2182,-4.2219,-4.2266,-4.2332,-4.2425,-4.2394,-4.2429,-4.2425,-4.2481,-4.2598,-4.2439,-4.244,-4.2465,-4.2737,-4.2759,-4.2782,-4.2583,-4.2586,-4.2589,-4.2732,0,-4.1957,-4.2098,-4.2097,-4.2227,-4.2292,-4.2265,-4.2334,-4.2373,-4.2387,-4.2444,-4.2459,-4.2524,-4.248,-4.2501,-4.2555,-4.2572,-4.2652,-4.2562,-4.2642,-4.2645,-4.2628,-4.2807,-4.2831,-4.2964,-4.2751,-4.2754,-4.2756,0,-4.2139,-4.2192,-4.2328,-4.237,-4.2397,-4.246,-4.2518,-4.2574,-4.2618,-4.2624,-4.2665,-4.2652,-4.2732,-4.267,-4.2781,-4.272,-4.2753,-4.2767,-4.2772,-4.2776,-4.2705,-4.2813,-4.3006,-4.3025,-4.2785,-4.2783,-4.2781,0,-4.2252,-4.2358,-4.2452,-4.2478,-4.253,-4.2575,-4.2598,-4.2638,-4.2677,-4.2729,-4.2753,-4.2814,-4.2847,-4.2894,-4.2897,-4.2852,-4.3009,-4.2947,-4.3014,-4.3014,-4.3045,-4.3043,-4.3244,-4.3073,-4.3072,-4.3072,-4.3071,0,-4.2407,-4.249,-4.2504,-4.2561,-4.2654,-4.2654,-4.2746,-4.2765,-4.2802,-4.2862,-4.2844,-4.2901,-4.2904,-4.2963,-4.2966,-4.3057,-4.3072,-4.3078,-4.3078,-4.3078,-4.3077,-4.3097,-4.3087,-4.3077,-4.3076,-4.3075,-4.3074,0,-4.2547,-4.256,-4.2661,-4.2703,-4.2715,-4.2782,-4.2817,-4.2872,-4.2885,-4.2962,-4.298,-4.3,-4.3069,-4.3078,-4.3158,-4.3161,-4.3268,-4.326,-4.3253,-4.3251,-4.3317,-4.331,-4.3535,-4.3564,-4.3377,-4.3379,-4.338,0,-4.2643,-4.2707,-4.2756,-4.2796,-4.2822,-4.2886,-4.2926,-4.2929,-4.2971,-4.3026,-4.3074,-4.3141,-4.3194,-4.3305,-4.3326,-4.3387,-4.3378,-4.3453,-4.3386,-4.3385,-4.3376,-4.337,-4.3376,-4.3464,-4.3466,-4.3468,-4.3469,0,-4.2812,-4.2815,-4.2873,-4.2934,-4.2982,-4.303,-4.3075,-4.3108,-4.3117,-4.3165,-4.3235,-4.3277,-4.3359,-4.3425,-4.3486,-4.3509,-4.3491,-4.3491,-4.3509,-4.3508,-4.3501,-4.3503,-4.3285,-4.3485,-4.3483,-4.3482,-4.3481,-4.348,-4.2931,-4.2986,-4.3029,-4.3094,-4.3129,-4.3172,-4.3225,-4.3245,-4.3304,-4.3371,-4.337,-4.3446,-4.3489,-4.3569,-4.3598,-4.3657,-4.3633,-4.366,-4.3666,-4.3672,-4.3677,-4.3495,-4.3669,-4.3668,-4.3668,-4.3668,-4.3667,0,-4.3096,-4.3123,-4.3183,-4.3247,-4.3298,-4.3279,-4.3328,-4.3371,-4.3439,-4.3481,-4.3534,-4.3615,-4.3679,-4.3707,-4.377,-4.3812,-4.3805,-4.3829,-4.3824,-4.3829,-4.3697,-4.3673,-4.3833,-4.3833,-4.3833,-4.3833,-4.3833,-4.3833,-4.3188,-4.3279,-4.3288,-4.3396,-4.3422,-4.3497,-4.3527,-4.3566,-4.36,-4.369,-4.3744,-4.3762,-4.3798,-4.3864,-4.3922,-4.3929,-4.3951,-4.3978,-4.3981,-4.3856,-4.3839,-4.3823,-4.38,-4.3984,-4.3984,-4.4107,-4.4108,-4.4109]},{"header":{"parameterUnit":"m.s-1","parameterCategory":1,"la1":30.2991,"la2":30.254,"lo1":-89.0895,"lo2":-89.0444,"dy":0.0017,"dx":0.0017,"nx":28,"ny":28,"refTime":"2023-09-26T03:00:00:Z","depth":0,"parameterNumber":3,"parameterNumberName":"V-component_of_WINDS"},"data":[0,0,0,0,0,0,0,0,0,0,0,0,0,0,0,0,0,0,0,0,0,0,0,0,0,0,0,0,0,0,0,0,0,0,0,0,0,0,0,0,0,0,0,0,0,0,0,0,0,0,0,0,0,0,0,0,0,0,0.3333,0.3333,0,0.3364,0.3365,0.3365,0.3387,0.3387,0.3387,0.3387,0.3417,0.3418,0.3418,0,0,0,0,0,0,0,0,0,0,0,0,0,0.3289,0.329,0.3333,0.3333,0.3333,0.3364,0.3365,0.3365,0.3387,0.3387,0.3387,0.3387,0.3417,0.3417,0.3418,0,0,0,0,0,0,0,0,0,0,0,0,0,0.3313,0.329,0.3333,0.3348,0.335,0.3364,0.3365,0.3365,0.3387,0.3387,0.3387,0.3387,0.3416,0.3417,0.3418,0.3419,0,0,0.3421,0.3422,0,0,0,0,0,0,0,0,0.3312,0.3315,0.3345,0.3347,0.3349,0.3372,0.336,0.3383,0.3387,0.3372,0.3387,0.3387,0.3402,0.3404,0.3409,0.3421,0.3422,0.3421,0.3422,0.3422,0.3423,0,0,0,0,0,0,0,0.331,0.3313,0.3345,0.3346,0.3348,0.3353,0.3356,0.3365,0.3385,0.3374,0.3375,0.3379,0.3403,0.3408,0.341,0.3422,0.3421,0.3422,0.3423,0.3423,0.3438,0.3438,0,0,0,0,0,0,0.3306,0.3312,0.3344,0.3346,0.3331,0.3353,0.3358,0.3364,0.3385,0.3389,0.3379,0.338,0.3406,0.3409,0.3411,0.3414,0.3422,0.3423,0.3424,0.3438,0.3438,0.3437,0,0,0,0,0,0,0.3305,0.3309,0.3343,0.333,0.3334,0.3354,0.3361,0.3365,0.337,0.3389,0.3393,0.3381,0.3407,0.341,0.3418,0.3415,0.3424,0.3425,0.3438,0.3438,0.3438,0.342,0,0,0,0,0,0,0.3304,0.3308,0.3309,0.3329,0.3335,0.3349,0.3361,0.3365,0.3372,0.3374,0.3392,0.3395,0.3407,0.3416,0.3419,0.3417,0.3425,0.3438,0.3438,0.3438,0.3421,0.3419,0.3418,0,0,0,0,0,0.3302,0.3302,0.3309,0.3313,0.3336,0.3349,0.3352,0.3367,0.3372,0.3373,0.3385,0.3394,0.3416,0.3417,0.342,0.3418,0.3439,0.3438,0.3438,0.3421,0.3419,0.3418,0,0,0,0,0,0,0.3279,0.3305,0.3313,0.3319,0.3332,0.3353,0.3354,0.3364,0.3374,0.3375,0.3393,0.3396,0.3403,0.3411,0.3412,0.3421,0.3428,0.3428,0.3415,0.3413,0.3412,0.3409,0.3426,0,0,0,0,0,0.3276,0.3284,0.3306,0.3309,0.3316,0.3334,0.334,0.335,0.3364,0.3369,0.3381,0.3393,0.3403,0.3409,0.3418,0.3423,0.3427,0.3423,0.3422,0.342,0.342,0.3424,0.3422,0.3436,0.3436,0.3436,0,0,0.3267,0.3282,0.3286,0.3305,0.3316,0.3325,0.3338,0.3346,0.3352,0.337,0.3378,0.3388,0.3403,0.3409,0.3412,0.3416,0.3417,0.342,0.3419,0.3419,0.3423,0.3422,0.342,0.3436,0.3436,0.3436,0,0,0.3255,0.3267,0.3272,0.3284,0.3301,0.3313,0.3314,0.3334,0.3342,0.3351,0.3364,0.3372,0.3388,0.3398,0.3405,0.34,0.3409,0.3402,0.3394,0.3397,0.3396,0.3395,0.3393,0.3392,0.3402,0.3402,0.3402,0,0.3241,0.3255,0.3273,0.3281,0.3289,0.3307,0.3312,0.3322,0.3341,0.3346,0.3351,0.3372,0.3383,0.3392,0.3391,0.3396,0.3398,0.34,0.3395,0.3394,0.3393,0.3392,0.3391,0.3401,0.3401,0.3401,0.3401,0,0.3238,0.3248,0.3249,0.3269,0.3277,0.3283,0.3302,0.3309,0.3319,0.3331,0.334,0.3355,0.3368,0.3371,0.3381,0.3382,0.3384,0.3392,0.3399,0.3391,0.339,0.3389,0.34,0.34,0.34,0.3401,0,0,0.321,0.3242,0.3242,0.3252,0.3273,0.328,0.3288,0.3302,0.3307,0.3321,0.3327,0.3341,0.3349,0.3357,0.3368,0.3371,0.3366,0.3378,0.3379,0.3375,0.3369,0.3363,0.3362,0.3373,0.3373,0.3373,0.3368,0,0.3202,0.3217,0.3234,0.3243,0.3252,0.327,0.3277,0.3291,0.3302,0.3312,0.3325,0.3334,0.3344,0.3349,0.3353,0.3366,0.3365,0.3367,0.3379,0.3379,0.3374,0.3361,0.3354,0.3349,0.3367,0.3367,0.3367,0,0.3193,0.3206,0.3217,0.3239,0.3243,0.3249,0.3264,0.3273,0.3289,0.3298,0.3308,0.3321,0.3329,0.3337,0.3349,0.335,0.3356,0.3363,0.3363,0.3364,0.3372,0.3361,0.3347,0.3346,0.3367,0.3367,0.3367,0,0.3171,0.3193,0.3202,0.3209,0.3235,0.3239,0.325,0.3266,0.3275,0.3288,0.3293,0.3307,0.3314,0.3325,0.3341,0.3345,0.3351,0.336,0.3358,0.3358,0.3358,0.3357,0.3344,0.3363,0.3363,0.3363,0.3363,0,0.3159,0.3164,0.3193,0.3198,0.3205,0.3225,0.3231,0.3244,0.3259,0.3267,0.3284,0.3291,0.3312,0.3321,0.3334,0.3342,0.3345,0.3352,0.3355,0.335,0.3349,0.3354,0.3354,0.3362,0.3363,0.3363,0.3363,0,0.3135,0.3155,0.3166,0.3191,0.3197,0.3201,0.3222,0.3228,0.3242,0.3252,0.3255,0.3277,0.3289,0.3307,0.3324,0.3332,0.3339,0.3344,0.3334,0.3335,0.3333,0.3332,0.3321,0.3321,0.334,0.334,0.334,0,0.3126,0.3131,0.3157,0.3164,0.3175,0.3186,0.3195,0.3216,0.3224,0.3244,0.3248,0.3262,0.3274,0.3293,0.331,0.3323,0.3329,0.3324,0.3331,0.3326,0.3328,0.3328,0.3328,0.3322,0.3321,0.3321,0.3321,0,0.3106,0.3116,0.3129,0.3146,0.3156,0.317,0.3185,0.319,0.3213,0.3222,0.3236,0.3245,0.3264,0.3278,0.3294,0.3305,0.3317,0.3319,0.3319,0.3314,0.3307,0.3311,0.3328,0.3319,0.3319,0.3319,0.3319,0.3319,0.3089,0.3095,0.3114,0.3128,0.3142,0.3156,0.3163,0.3179,0.3191,0.3209,0.3221,0.3234,0.3251,0.3275,0.3285,0.3296,0.33,0.3301,0.3301,0.33,0.3299,0.3307,0.3299,0.3299,0.3299,0.3299,0.3299,0,0.307,0.3084,0.3097,0.3118,0.313,0.3142,0.3159,0.3167,0.3179,0.3195,0.3208,0.3224,0.3238,0.3257,0.3272,0.3277,0.3283,0.328,0.328,0.3282,0.3294,0.3292,0.3276,0.3276,0.3276,0.3276,0.3276,0.3276,0.3061,0.3072,0.3085,0.3103,0.3117,0.3131,0.314,0.3153,0.3166,0.3184,0.3196,0.3209,0.3226,0.3244,0.3257,0.3262,0.3267,0.3263,0.3269,0.3279,0.3281,0.3283,0.3282,0.3264,0.3264,0.3257,0.3257,0.3257]}]]